QIANFAN-37 (62238 NORAD) Tracking and Keplerian Element Data

This shows tracking and keplerian element data for the satellite.

Feedback or suggestion? Click here.




ElementValue
Catalog62238
NameQIANFAN-37
Epoch Orbit5696
Epoch Day35.00673227
Epoch Year2025
RAAN73.1769
Inclination88.9864
Eccentricity0.001567
Argument of Perigee27.3482
Mean Anonmoly332.8526
Mean Motion14.13111048
Decay Rate6.08E-06
L11 62238U 24232B 25035.00673227 .00000608 00000+0 31751-3 0 9999
L22 62238 88.9864 73.1769 0015670 27.3482 332.8526 14.13111048 56963



Live tracking and technical data element details for QIANFAN-37 (NORAD 62238). QIANFAN-37 can be tracked NOW for your location showing map with azimuth and elevation plus other details from your city location.







IsCatalogInMostPopularTable: catalog: 62238, numindb: 14
Update: records affected: 1



GetName: 62238 QIANFAN-37

Hit Count: updated at: Mon, 19 May 2025 03:30:53 GMT